Flag for United Kingdom Weather past 2 weeks in Caversham, England, United Kingdom

Now
70 °F

Overcast.


Feels Like: 70 °F
Forecast: 54 / 68 °F
Wind: 20 mph from Southwest

Location: Benson

Current Time: Aug 3, 2015 at 2:22:00 PM

Latest Report: Aug 3, 2015 at 1:00 PM


Visibility: 19 mi

Pressure: 29.85 "Hg

Humidity: 58%

Dew point: 54 °F

Location of CavershamLocation

Historic Weather in Caversham — Graph

°F

Caversham temperature yesterday

Maximum temperature yesterday: 77 °F (at 4:00 PM)
Minimum temperature yesterday: 48 °F (at 6:00 AM)
Average temperature yesterday: 64 °F

Past Weeks' High & Low Weather Summary

 TemperatureHumidityPressure
High77 °F (Aug 2, 4:00 PM)100% (Aug 2, 6:00 PM)30.16 "Hg (Aug 2, 6:00 PM)
Low37 °F (Jul 31, 6:00 AM)25% (Jul 19, 4:00 PM)29.41 "Hg (Jul 26, 7:00 PM)
Average59 °F72%29.88 "Hg
* Reported Jul 19 1:00 PM — Aug 3 1:00 PM, Caversham, Weather by CustomWeather, © 2015

Note: Actual official high and low records may vary slightly from our data, if they occured in-between our weather recording intervals... More about our weather records

Advertising

Caversham weather history for previous 24 hours

 ConditionsComfort  
Time TempWeatherWind HumidityBarometerVisibility
1:00 PM
Mon, Aug 3
70 °FOvercast.20 mph58%29.85 "Hg19 mi
12:00 PM71 °FPartly sunny.18 mph57%29.84 "Hg19 mi
11:00 AM67 °FOvercast.12 mph83%29.84 "Hg16 mi
10:00 AM69 °FPartly sunny.17 mph99%29.84 "Hg19 mi
9:00 AM66 °FOvercast.15 mph100%29.83 "Hg16 mi
8:00 AM63 °FPartly sunny.10 mph100%29.82 "Hg12 mi
7:00 AM62 °FOvercast.6 mph100%29.81 "Hg12 mi
6:00 AM58 °FCool.3 mphN/A29.80 "Hg10 mi
5:00 AM57 °FCool.5 mph81%29.79 "Hg17 mi
4:00 AM60 °FCool.5 mph69%29.78 "Hg19 mi
3:00 AM64 °FMild.12 mph59%29.78 "Hg19 mi
2:00 AM64 °FMild.9 mph57%29.80 "Hg19 mi
1:00 AM66 °FMild.18 mph100%29.80 "Hg19 mi
12:00 AM67 °FMild.21 mph100%29.83 "Hg19 mi
11:00 PM
Sun, Aug 2
69 °FMild.20 mph100%29.84 "Hg19 mi
9:00 PM69 °FMild.7 mph45%29.89 "Hg19 mi
8:00 PM71 °FMild.8 mphN/A29.90 "Hg22 mi
7:00 PM74 °FMild.13 mph100%29.91 "Hg25 mi
6:00 PM75 °FMild.18 mph100%29.93 "Hg28 mi
5:00 PM76 °FMild.17 mph32%29.93 "Hg25 mi
4:00 PM77 °FPleasantly warm.15 mph32%29.95 "Hg25 mi
3:00 PM75 °FMild.16 mph38%29.98 "Hg22 mi
2:00 PM73 °FMild.14 mph42%30.01 "Hg22 mi
Weather by CustomWeather, © 2015

See weather overviewHow to use our weather pages